This is the latest recevied weather packets stored in our database for station/object SM4JDW-10. If no packets are shown the sender has not sent any weather packets the latest 10 day(s).
| Time | Temp. | Humidity | Pressure | Rain* | Wind** | Luminosity | Snow |
|---|---|---|---|---|---|---|---|
| 1787861943 | 17.22° C | 56% | 1021.3 hPa | - | - | - | - |
| 1787860143 | 17.78° C | 55% | 1021.4 hPa | - | - | - | - |
| 1787858343 | 18.33° C | 51% | 1021.4 hPa | - | - | - | - |
| 1787856543 | 18.89° C | 49% | 1021.3 hPa | - | - | - | - |
| 1787854743 | 19.44° C | 49% | 1021.2 hPa | - | - | - | - |
| 1787852943 | 20° C | 48% | 1021.1 hPa | - | - | - | - |
| 1787851143 | 20.56° C | 46% | 1020.9 hPa | - | - | - | - |
| 1787849343 | 21.67° C | 44% | 1021.1 hPa | - | - | - | - |
| 1787847542 | 22.78° C | 40% | 1021.1 hPa | - | - | - | - |
| 1787845743 | 23.33° C | 39% | 1021.2 hPa | - | - | - | - |
| 1787843942 | 23.89° C | 37% | 1021.3 hPa | - | - | - | - |
| 1787842146 | 24.44° C | 37% | 1021.7 hPa | - | - | - | - |
| 1787840342 | 25.56° C | 37% | 1021.9 hPa | - | - | - | - |
| 1787838542 | 25° C | 40% | 1022.1 hPa | - | - | - | - |
| 1787836742 | 25° C | 39% | 1022.4 hPa | - | - | - | - |
| 1787834942 | 24.44° C | 41% | 1022.7 hPa | - | - | - | - |
| 1787833142 | 23.89° C | 44% | 1022.8 hPa | - | - | - | - |
| 1787829541 | 21.67° C | 50% | 1023.4 hPa | - | - | - | - |
| 1787827741 | 20.56° C | 54% | 1023.7 hPa | - | - | - | - |
| 1787825941 | 19.44° C | 60% | 1023.8 hPa | - | - | - | - |
| 1787824141 | 18.33° C | 64% | 1023.9 hPa | - | - | - | - |
| 1787822340 | 16.67° C | 68% | 1024.1 hPa | - | - | - | - |
| 1787820544 | 15° C | 71% | 1024.3 hPa | - | - | - | - |
| 1787818744 | 13.89° C | 70% | 1024.4 hPa | - | - | - | - |
| 1787816944 | 13.33° C | 69% | 1024.4 hPa | - | - | - | - |
* Rain since midnight (hover to see other rain measurements)
** Current wind speed in m/s (hover to see current wind gust speed)